This demonstration page uses our WeatherBlox Daily Observations layout. Learn more.

Left ArrowRight Arrow

36.19886, -115.1175

Hourly Observations for August 31, 2020

Temp ( °F °C ) Dew Point ( °F °C ) Humidity (%) Winds ( mph kmh ) Pressure ( in mb ) Visibility ( mi km ) Precip ( " mm )
12:53 am 00:53 Clear 85 29.4 16 -8.9 7 7 E 5 7 29.73 1007 10 16.0934 0 0
1:53 am 01:53 Clear 81 27.2 20 -6.7 10 10 Calm 29.74 1007 10 16.0934 0 0
2:53 am 02:53 Clear 77 25 24 -4.4 14 14 NW 6 9 29.75 1008 10 16.0934 0 0
3:53 am 03:53 Clear 76 24.4 40 4.4 27 27 NW 3 6 29.76 1008 10 16.0934 0 0
4:53 am 04:53 Clear 75 23.9 49 9.4 40 40 WNW 5 7 29.77 1008 10 16.0934 0 0
5:53 am 05:53 Clear 74 23.3 53 11.7 48 48 NW 6 9 29.78 1009 10 16.0934 0 0
6:53 am 06:53 Sunny 75 23.9 53 11.7 46 46 NNW 5 7 29.8 1009 10 16.0934 0 0
7:53 am 07:53 Sunny 80 26.7 51 10.6 37 37 ENE 5 7 29.8 1009 10 16.0934 0 0
8:53 am 08:53 Sunny 84 28.9 57 13.9 40 40 E 6 9 29.81 1009 10 16.0934 0 0
9:53 am 09:53 Sunny 88 31.1 51 10.6 28 28 SSE 3 6 29.81 1009 10 16.0934 0 0
10:53 am 10:53 Sunny 91 32.8 53 11.7 27 27 SE 5 7 29.81 1009 10 16.0934 0 0
11:53 am 11:53 Sunny 95 35 50 10 22 22 E 7 11 29.78 1008 10 16.0934 0 0
12:53 pm 12:53 Sunny 99 37.2 38 3.3 12 12 VRB 5 7 29.75 1008 10 16.0934 0 0
1:53 pm 13:53 Sunny 102 38.9 26 -3.3 7 7 SW 12 19 29.72 1006 10 16.0934 0 0
2:53 pm 14:53 Sunny 102 38.9 25 -3.9 6 6 SW 8 13 29.68 1005 10 16.0934 0 0
3:53 pm 15:53 Sunny 103 39.4 25 -3.9 6 6 SW 10 17 29.66 1004 10 16.0934 0 0
4:53 pm 16:53 Sunny 103 39.4 27 -2.8 7 7 SW 13 20 29.64 1004 10 16.0934 0 0
5:22 pm 17:22 Sunny 103 39.4 27 -2.8 7 7 WSW 14 22 29.45 997 10 16.0934 0 0
5:53 pm 17:53 Sunny 102 38.9 28 -2.2 7 7 WSW 14 22 29.63 1003 10 16.0934 0 0
6:53 pm 18:53 Sunny 99 37.2 28 -2.2 8 8 SW 17 28 29.62 1003 10 16.0934 0 0
7:53 pm 19:53 Clear 97 36.1 28 -2.2 9 9 SW 13 20 29.63 1003 10 16.0934 0 0
8:53 pm 20:53 Clear 97 36.1 26 -3.3 8 8 WSW 15 24 29.64 1004 10 16.0934 0 0
9:53 pm 21:53 Clear 97 36.1 17 -8.3 5 5 W 13 20 29.65 1004 10 16.0934 0 0
10:53 pm 22:53 Clear 94 34.4 22 -5.6 7 7 NNW 8 13 29.67 1005 10 16.0934 0 0
11:53 pm 23:53 Clear 91 32.8 24 -4.4 9 9 NW 14 22 29.69 1006 10 16.0934 0 0

Powered by AerisWeather